Regional Weather Roundup
Issued by NWS Sterling, VA

Home | Current Version | Previous Version | Graphics & Text | Print | Product List | Glossary On
Versions: 1 2 3 4 5 6 7 8 9 10 11 12 13 14 15 16 17 18 19 20 21 22 23 24 25 26 27 28 29 30 31 32 33 34 35 36 37 38 39 40 41 42 43 44 45 46 47 48 49 50
000
ASUS41 KLWX 171011
RWRLWX

REGIONAL WEATHER ROUNDUP
NATIONAL WEATHER SERVICE BALTIMORE MD/WASHINGTON DC
500 AM EST FRI NOV 17 2017

Note: "FAIR" indicates few or no clouds below 12,000 feet
with no significant weather and/or obstructions to visibility.
 TC=TEMPERATURE CELSIUS

 * =Non NWS site. Station does not report precipitation (e.g. rain,
    snow, etc.), thunder, or fog.

DCZ001-MDZ009-015-VAZ040>042-051-053>054-171100-
WASHINGTON METRO

CITY           SKY/WX    TMP DP  RH WIND       PRES   REMARKS
WASHINGTON NAT PTCLDY    44  29  55 W9        30.17R
DULLES         PTCLDY    40  29  64 W6        30.17R
ANDREWS AFB    CLEAR     41  28  59 W9        30.14R
FT BELVOIR     CLEAR     41  28  61 NW7       30.16R
QUANTICO       CLEAR     40  30  67 NW9       30.18
COLLEGE PARK*  PTCLDY    41  28  60 CALM      30.15R
LEESBURG*      MOCLDY    41  32  70 NW15      30.16S
MANASSAS*      CLEAR     37  28  70 NW7       30.18R
GAITHERSBURG*  PTCLDY    39  29  67 NW10      30.14R

$$

MDZ006>007-011-014-171100-
BALTIMORE METRO

CITY           SKY/WX    TMP DP  RH WIND       PRES   REMARKS
BWI AIRPORT    PTCLDY    37  30  75 W8        30.13R
MD SCIENCE CTR   N/A     42  29  59 MISG      30.13
MARTIN STATE   CLEAR     41  32  70 CALM      30.14R
ANNAPOLIS      CLEAR     44  31  60 W8        30.13
FORT MEADE*    CLEAR     36  32  87 W7        30.16R

$$

MDZ012-015-019>023-171100-
MARYLAND EASTERN SHORE

CITY           SKY/WX    TMP DP  RH WIND       PRES   REMARKS
OCEAN CITY     CLEAR     41  32  70 NW8       30.11R
SALISBURY      CLEAR     41  32  70 W7        30.11R
CAMBRIDGE*       N/A    N/A N/A N/A MISG        N/A

$$

MDZ017>025-171100-
SOUTHERN MARYLAND

CITY           SKY/WX    TMP DP  RH WIND       PRES   REMARKS
PATUXENT RIVER CLEAR     37  31  78 W9        30.14
ST INIGOES     PTCLDY    43  31  62 NW9G21    30.14
LEONARDTOWN*   PTCLDY    39  30  70 W6        30.15R

$$

MDZ003>005-171100-
NORTH CENTRAL MARYLAND

CITY           SKY/WX    TMP DP  RH WIND       PRES   REMARKS
FREDERICK*     PTCLDY    41  28  60 NW7       30.17R
HAGERSTOWN APT CLOUDY    41  30  65 CALM      30.14R
WESTMINSTER*   MOCLDY    39  30  70 W5        30.10R

$$

MDZ501>502-171100-
WESTERN MARYLAND

CITY           SKY/WX    TMP DP  RH WIND       PRES   REMARKS
OAKLAND*       CLOUDY    28  27  93 NW10G16   30.10R WCI  19
CUMBERLAND*    PTCLDY    41  28  60 NW5       30.22R

$$

VAZ025>031-171100-
SHENANDOAH VALLEY

CITY           SKY/WX    TMP DP  RH WIND       PRES   REMARKS
WINCHESTER*    PTCLDY    37  28  70 W10       30.16R
FRONT ROYAL*   CLEAR     37  28  70 CALM      30.16R
LURAY*         PTCLDY    37  30  75 W5        30.18R
NEW MARKET*    CLEAR     31  26  81 CALM      30.18R
STAUNTON*      CLEAR     27  24  89 CALM      30.20S
WAYNESBORO*    CLEAR     32  26  79 W7        30.17S

$$

WVZ021-048>050-054>055-171100-
EASTERN WEST VIRGINIA PANHANDLE

CITY           SKY/WX    TMP DP  RH WIND       PRES   REMARKS
MARTINSBURG    PTCLDY    41  27  57 NW12      30.15R
PETERSBURG*    CLEAR     31  27  85 CALM      30.20S

$$

VAZ036>039-050-171100-
CENTRAL FOOTHILLS

CITY           SKY/WX    TMP DP  RH WIND       PRES   REMARKS
CHARLOTTESVILL CLEAR     40  27  59 CALM      30.16R
CULPEPER*      CLEAR     31  26  84 W3        30.18R
ORANGE*        PTCLDY    30  28  93 CALM      30.16R
GORDONSVILLE*  PTCLDY    33  30  88 W5        30.16R
WARRENTON*     NOT AVBL

$$

VAZ055>057-171100-
NORTH AND CENTRAL PIEDMONT

CITY           SKY/WX    TMP DP  RH WIND       PRES   REMARKS
FREDERICKSBRG* PTCLDY    35  31  85 NW8       30.16R WCI  29
STAFFORD*      PTCLDY    37  30  75 N9        30.21R

$$

NCZ024-NYZ072-PAZ021-071-VAZ022-071-171100-
OTHER REGIONAL OBSERVATIONS

CITY           SKY/WX    TMP DP  RH WIND       PRES   REMARKS
NEW YORK CITY  MOCLDY    41  25  53 NW10G25   30.01R
PHILADELPHIA   MOCLDY    45  27  49 NW13      30.08R
PITTSBURGH     CLOUDY    37  27  67 NW9       30.21R
ROANOKE        CLEAR     34  26  72 NW5       30.23R
RICHMOND       PTCLDY    38  30  73 NW3       30.17R
RALEIGH        PTCLDY    40  30  67 N6        30.19R

$$

ANZ530>537-171100-
MARINE OBSERVATIONS

STATION/POSITION TIME  TEMP    WIND        PRES
                       AIR SEA DIR/SP/G
                 (UTC) (F)     (DEG/KT/KT) (MB)
THOMAS PT LIGHT  1000   44 53  280/ 14/ 16   N/A
BALT KEY BRIDGE  0948   44     260/ 12/ 14 1020.1R
COVE POINT       0948   44     340/ 13/ 18 1021.0R
LEWISETTA        0948   45 51  340/ 16/ 24 1020.4R
SOLOMONS ISLAND  0948   44 55  300/  8/ 13 1020.2R
PINEY POINT      0942          340/ 24/ 28   N/A

$$




USA.gov is the U.S. government's official web portal to all federal, state and local government web resources and services.